Cape Girardeau, MO

5:25 AM CDT on September 26, 2017 (GMT -0500)
Cape Girardeau Regional

Weather History for KCGI - January, 2013

Change the Weather History Date:

Tuesday, January 29, 2013

  Actual Average Record
Temperature  
Mean Temperature 62 °F 34 °F  
Max Temperature 71 °F 44 °F 72 °F (1987)
Min Temperature 52 °F 24 °F -3 °F (1985)
Degree Days  
Heating Degree Days 3 31  
Month to date heating degree days 819 924  
Since 1 July heating degree days 2443 2675  
Cooling Degree Days 0 0  
Month to date cooling degree days 0 0  
Year to date cooling degree days 0 0  
Growing Degree Days 12 (Base 50)    
Moisture  
Dew Point 57 °F    
Average Humidity 78    
Maximum Humidity 90    
Minimum Humidity 66    
Precipitation  
Precipitation 0.82 in 0.11 in 2.81 in (1969)
Month to date precipitation 3.53 3.22  
Year to date precipitation 3.53 3.22  
Sea Level Pressure  
Sea Level Pressure 29.72 in    
Wind  
Wind Speed 19 mph (South)    
Max Wind Speed 33 mph    
Max Gust Speed 48 mph    
Visibility 8 miles    
Events Rain , Thunderstorm    
T = Trace of Precipitation, MM = Missing Value Source: NWS Daily Summary

Daily Weather History Graph

Daily Weather History Graph

Search for Another Location

Airport or City:

Trip Planner

Search our weather history database for the weather conditions in past years. The results will help you decide how hot, cold, wet, or windy it might be!

Date:

Astronomy

Jan. 29, 2013 Rise Set
Actual Time 7:03 AM CST 5:19 PM CST
Civil Twilight 6:35 AM CST 5:47 PM CST
Nautical Twilight 6:04 AM CST 6:18 PM CST
Astronomical Twilight 5:33 AM CST 6:49 PM CST
Moon 8:10 PM CST (1/29) 8:04 AM CST (1/29)
Length of Visible Light 11h 11m
Length of Day
10h 16m
Waning Gibbous, 93% of the Moon is Illuminated
Jan 29
Waning Gibbous
Feb 3
Last Quarter
Feb 10
New
Feb 17
First Quarter
Feb 25
Full

Hourly Weather History & Observations

Time (CST) Temp. Dew Point Humidity Pressure Visibility Wind Dir Wind Speed Gust Speed Precip Events Conditions
12:53 AM 61.0 °F 55.9 °F 83% 29.97 in 10.0 mi South 12.7 mph - N/A   Overcast
1:53 AM 60.1 °F 55.9 °F 86% 29.95 in 10.0 mi South 13.8 mph - N/A   Overcast
2:02 AM 60.8 °F 55.4 °F 82% 29.95 in 10.0 mi South 13.8 mph - N/A   Overcast
2:53 AM 60.1 °F 55.9 °F 86% 29.94 in 10.0 mi South 15.0 mph - N/A   Overcast
3:04 AM 60.8 °F 55.4 °F 82% 29.94 in 10.0 mi South 16.1 mph - N/A   Overcast
3:17 AM 60.8 °F 55.4 °F 82% 29.94 in 10.0 mi South 13.8 mph - N/A   Overcast
3:53 AM 60.1 °F 55.9 °F 86% 29.93 in 10.0 mi South 16.1 mph 24.2 mph N/A   Overcast
4:10 AM 60.8 °F 55.4 °F 82% 29.94 in 10.0 mi South 16.1 mph - N/A   Overcast
4:22 AM 60.8 °F 55.4 °F 82% 29.93 in 10.0 mi South 18.4 mph 25.3 mph N/A   Overcast
4:53 AM 60.1 °F 55.9 °F 86% 29.92 in 10.0 mi South 18.4 mph 26.5 mph N/A   Overcast
5:53 AM 61.0 °F 57.0 °F 87% 29.91 in 10.0 mi South 16.1 mph - N/A   Overcast
6:21 AM 60.8 °F 57.2 °F 88% 29.91 in 10.0 mi South 16.1 mph 24.2 mph N/A   Overcast
6:53 AM 61.0 °F 57.0 °F 87% 29.91 in 9.0 mi South 17.3 mph 23.0 mph N/A   Overcast
7:44 AM 60.8 °F 57.2 °F 88% 29.90 in 7.0 mi South 16.1 mph 24.2 mph N/A   Overcast
7:53 AM 61.0 °F 57.9 °F 90% 29.90 in 7.0 mi South 15.0 mph 21.9 mph N/A   Overcast
8:53 AM 62.1 °F 59.0 °F 90% 29.87 in 7.0 mi South 18.4 mph 27.6 mph N/A   Overcast
9:29 AM 62.6 °F 59.0 °F 88% 29.87 in 8.0 mi South 18.4 mph 27.6 mph 0.00 in   Overcast
9:53 AM 63.0 °F 59.0 °F 87% 29.86 in 9.0 mi SSW 16.1 mph 26.5 mph 0.00 in   Overcast
10:00 AM 62.6 °F 59.0 °F 88% 29.86 in 9.0 mi South 19.6 mph 28.8 mph N/A   Overcast
10:51 AM 64.4 °F 59.0 °F 83% 29.83 in 10.0 mi South 18.4 mph - 0.00 in   Overcast
10:53 AM 64.9 °F 59.0 °F 81% 29.83 in 10.0 mi South 17.3 mph 26.5 mph 0.00 in   Overcast
11:48 AM 66.2 °F 59.0 °F 78% 29.78 in 10.0 mi South 28.8 mph 35.7 mph N/A   Mostly Cloudy
11:53 AM 66.9 °F 59.0 °F 76% 29.78 in 10.0 mi South 24.2 mph 35.7 mph N/A   Mostly Cloudy
12:08 PM 68.0 °F 59.0 °F 73% 29.76 in 10.0 mi South 29.9 mph 41.4 mph N/A   Mostly Cloudy
12:53 PM 69.1 °F 57.9 °F 68% 29.73 in 10.0 mi South 34.5 mph 43.7 mph N/A   Mostly Cloudy
1:53 PM 69.1 °F 57.9 °F 68% 29.69 in 10.0 mi South 23.0 mph 33.4 mph N/A   Overcast
2:53 PM 70.0 °F 57.9 °F 65% 29.66 in 10.0 mi South 24.2 mph 32.2 mph N/A   Overcast
3:53 PM 69.1 °F 57.0 °F 65% 29.65 in 10.0 mi South 25.3 mph 36.8 mph N/A   Overcast
4:53 PM 66.9 °F 57.9 °F 73% 29.60 in 10.0 mi South 23.0 mph 27.6 mph 0.02 in   Overcast
5:53 PM 66.0 °F 57.9 °F 75% 29.58 in 9.0 mi South 21.9 mph 28.8 mph 0.02 in Rain Light Rain
6:12 PM 64.4 °F 59.0 °F 83% 29.57 in 7.0 mi South 20.7 mph 28.8 mph 0.01 in Rain , Thunderstorm Light Rain
6:27 PM 64.4 °F 59.0 °F 83% 29.57 in 10.0 mi SSE 13.8 mph - 0.01 in Rain Light Rain
6:53 PM 64.9 °F 59.0 °F 81% 29.54 in 10.0 mi SSE 18.4 mph 26.5 mph 0.01 in   Overcast
7:53 PM 66.9 °F 60.1 °F 79% 29.47 in 10.0 mi SSE 20.7 mph 31.1 mph 0.00 in   Overcast
8:53 PM 68.0 °F 60.1 °F 76% 29.41 in 10.0 mi SSE 24.2 mph 36.8 mph 0.00 in   Overcast
9:16 PM 68.0 °F 60.8 °F 78% 29.41 in 10.0 mi South 24.2 mph 40.3 mph N/A Thunderstorm Thunderstorm
9:26 PM 69.8 °F 60.8 °F 73% 29.46 in 10.0 mi Variable 6.9 mph 33.4 mph N/A Thunderstorm Overcast
9:36 PM 55.4 °F 53.6 °F 94% 29.52 in 1.5 mi NW 27.6 mph 46.0 mph 0.16 in Rain , Thunderstorm Heavy Thunderstorms and Rain
9:39 PM 55.4 °F 53.6 °F 94% 29.50 in 0.8 mi NNW 33.4 mph 48.3 mph 0.28 in Rain , Thunderstorm Heavy Thunderstorms and Rain
9:45 PM 55.4 °F 53.6 °F 94% 29.51 in 1.0 mi NNW 29.9 mph 48.3 mph 0.33 in Rain , Thunderstorm Heavy Thunderstorms and Rain
9:49 PM 55.4 °F 53.6 °F 94% 29.50 in 2.0 mi NNW 25.3 mph 41.4 mph 0.36 in Rain , Thunderstorm Heavy Thunderstorms and Rain
9:53 PM 55.0 °F 53.1 °F 93% 29.51 in 3.0 mi NNW 21.9 mph 39.1 mph 0.37 in Rain , Thunderstorm Thunderstorms and Rain
10:29 PM 55.4 °F 51.8 °F 88% 29.55 in 4.0 mi North 10.4 mph - 0.12 in Rain Rain
10:53 PM 55.0 °F 52.0 °F 89% 29.52 in 5.0 mi North 9.2 mph - 0.20 in Rain Rain
11:01 PM 53.6 °F 51.8 °F 94% 29.53 in 4.0 mi North 10.4 mph - 0.03 in Rain , Thunderstorm Heavy Rain
11:16 PM 53.6 °F 51.8 °F 94% 29.54 in 4.0 mi North 4.6 mph - 0.08 in Rain Rain
11:53 PM 53.6 °F 51.8 °F 94% 29.53 in 6.0 mi NNE 5.8 mph - N/A Rain Light Rain